Change the Weather History Date:

Friday, October 18, 2013

  Actual Average (KEYE) Record (KEYE)
Temperature  
Mean Temperature 53 °F 54 °F  
Max Temperature 66 °F 64 °F 81 °F (2007)
Min Temperature 40 °F 44 °F 33 °F (2001)
Degree Days  
Heating Degree Days 12 11  
Month to date heating degree days 157  
Since 1 July heating degree days 218  
Cooling Degree Days 0 0  
Month to date cooling degree days 12  
Year to date cooling degree days 1055  
Growing Degree Days 3 (Base 50)    
Moisture  
Dew Point 40 °F    
Average Humidity 70    
Maximum Humidity 88    
Minimum Humidity 36    
Precipitation  
Precipitation 0.00 in 0.11 in 1.01 in (2004)
Month to date precipitation 1.84  
Year to date precipitation 32.74  
Sea Level Pressure  
Sea Level Pressure 29.96 in    
Wind  
Wind Speed 6 mph (SW)    
Max Wind Speed 16 mph    
Max Gust Speed 22 mph    
Visibility 10 miles    
Events      
T = Trace of Precipitation, MM = Missing Value Source: NWS Daily Summary

Daily Weather History Graph

Daily Weather History Graph

Search for Another Location

Airport or City:

Trip Planner

Search our weather history database for the weather conditions in past years. The results will help you decide how hot, cold, wet, or windy it might be!

Date:

Astronomy

Oct. 18, 2013 Rise Set
Actual Time 7:58 AM EDT 7:00 PM EDT
Civil Twilight 7:31 AM EDT 7:28 PM EDT
Nautical Twilight 7:00 AM EDT 7:59 PM EDT
Astronomical Twilight 6:28 AM EDT 8:30 PM EDT
Moon 6:50 PM EDT (10/18) 7:33 AM EDT (10/18)
Length of Visible Light 11h 56m
Length of Day
11h 01m
Full, 100% of the Moon is Illuminated
Oct 18
Full
Oct 18
Full
Oct 26
Last Quarter
Nov 3
New
Nov 10
First Quarter

Hourly Weather History & Observations

Time (EDT) Temp. Windchill Dew Point Humidity Pressure Visibility Wind Dir Wind Speed Gust Speed Precip Events Conditions
12:15 AM 42.3 °F 40.5 °F 37.6 °F 83% 29.95 in 10.0 mi SSW 3.5 mph - N/A   Clear
12:35 AM 42.3 °F 40.5 °F 38.1 °F 85% 29.95 in 10.0 mi SSW 3.5 mph - N/A   Clear
12:55 AM 43.2 °F 39.7 °F 38.7 °F 84% 29.95 in 10.0 mi SSW 5.8 mph - N/A   Clear
1:15 AM 43.2 °F 40.5 °F 38.7 °F 84% 29.95 in 10.0 mi SSW 4.6 mph - N/A   Clear
1:35 AM 43.7 °F 41.1 °F 38.8 °F 83% 29.95 in 10.0 mi SSW 4.6 mph - N/A   Clear
1:55 AM 43.5 °F 40.1 °F 39.0 °F 84% 29.95 in 10.0 mi SW 5.8 mph - N/A   Clear
2:15 AM 43.7 °F 40.3 °F 39.2 °F 84% 29.95 in 10.0 mi SSW 5.8 mph - N/A   Clear
2:35 AM 43.7 °F 41.1 °F 39.2 °F 84% 29.95 in 10.0 mi SSW 4.6 mph - N/A   Clear
2:55 AM 43.3 °F 40.7 °F 38.8 °F 84% 29.95 in 10.0 mi SSW 4.6 mph - N/A   Clear
3:15 AM 43.0 °F 40.3 °F 38.5 °F 84% 29.95 in 10.0 mi SSW 4.6 mph - N/A   Clear
3:35 AM 42.3 °F 39.4 °F 37.9 °F 85% 29.95 in 10.0 mi South 4.6 mph - N/A   Clear
3:55 AM 42.1 °F 39.2 °F 38.5 °F 87% 29.95 in 10.0 mi SSW 4.6 mph - N/A   Clear
4:15 AM 42.8 °F 39.3 °F 38.7 °F 85% 29.95 in 10.0 mi SSW 5.8 mph - N/A   Clear
4:35 AM 42.8 °F 39.3 °F 38.7 °F 85% 29.95 in 10.0 mi SSW 5.8 mph - N/A   Clear
4:55 AM 43.3 °F 39.9 °F 39.4 °F 86% 29.95 in 10.0 mi SSW 5.8 mph - N/A   Scattered Clouds
5:15 AM 43.7 °F 40.3 °F 39.4 °F 85% 29.95 in 10.0 mi SSW 5.8 mph - N/A   Clear
5:35 AM 43.7 °F 40.3 °F 39.4 °F 85% 29.95 in 10.0 mi SSW 5.8 mph - N/A   Scattered Clouds
5:55 AM 43.7 °F 40.3 °F 39.6 °F 85% 29.95 in 10.0 mi SSW 5.8 mph - N/A   Scattered Clouds
6:15 AM 43.7 °F 40.3 °F 39.4 °F 85% 29.95 in 10.0 mi SSW 5.8 mph - N/A   Clear
6:35 AM 43.0 °F 40.3 °F 39.2 °F 86% 29.95 in 7.0 mi SSW 4.6 mph - N/A   Clear
6:55 AM 42.8 °F 40.1 °F 39.2 °F 87% 29.95 in 7.0 mi South 4.6 mph - N/A   Clear
7:15 AM 43.0 °F 39.5 °F 39.6 °F 88% 29.95 in 7.0 mi SSW 5.8 mph - N/A   Clear
7:35 AM 43.7 °F 40.3 °F 40.3 °F 88% 29.96 in 7.0 mi SSW 5.8 mph - N/A   Clear
7:55 AM 43.7 °F 40.3 °F 40.1 °F 87% 29.96 in 7.0 mi SSW 5.8 mph - N/A   Clear
8:15 AM 43.9 °F 40.5 °F 40.3 °F 87% 29.96 in 5.0 mi SSW 5.8 mph - N/A   Clear
8:35 AM 44.8 °F 41.6 °F 41.2 °F 87% 29.96 in 7.0 mi SSW 5.8 mph - N/A   Scattered Clouds
8:55 AM 46.0 °F 42.5 °F 42.1 °F 86% 29.97 in 7.0 mi SSW 6.9 mph - N/A   Scattered Clouds
9:15 AM 47.3 °F - 42.8 °F 84% 29.97 in 10.0 mi SSW 8.1 mph - N/A   Clear
9:35 AM 48.6 °F - 43.0 °F 81% 29.98 in 10.0 mi SSW 9.2 mph - N/A   Clear
9:55 AM 50.0 °F - 43.5 °F 78% 29.99 in 10.0 mi SSW 9.2 mph - N/A   Clear
10:15 AM 51.8 °F - 43.9 °F 74% 29.99 in 10.0 mi SSW 11.5 mph - N/A   Clear
10:35 AM 53.1 °F - 43.9 °F 71% 29.99 in 10.0 mi SW 10.4 mph - N/A   Clear
10:55 AM 55.2 °F - 44.4 °F 67% 29.99 in 10.0 mi SW 8.1 mph - N/A   Clear
11:15 AM 56.7 °F - 44.4 °F 64% 29.99 in 10.0 mi SSW 11.5 mph - N/A   Clear
11:35 AM 58.1 °F - 44.8 °F 61% 29.98 in 10.0 mi SSW 9.2 mph - N/A   Clear
11:55 AM 59.4 °F - 44.6 °F 58% 29.98 in 10.0 mi SSW 11.5 mph 18.4 mph N/A   Scattered Clouds
12:15 PM 60.6 °F - 44.6 °F 56% 29.98 in 10.0 mi SW 13.8 mph 18.4 mph N/A   Scattered Clouds
12:35 PM 61.9 °F - 44.4 °F 53% 29.98 in 10.0 mi WSW 12.7 mph 18.4 mph N/A   Clear
12:55 PM 62.6 °F - 44.1 °F 51% 29.98 in 10.0 mi SW 15.0 mph 20.7 mph N/A   Clear
1:15 PM 63.0 °F - 42.8 °F 48% 29.97 in 10.0 mi SW 16.1 mph 21.9 mph N/A   Clear
1:35 PM 64.2 °F - 43.9 °F 48% 29.96 in 10.0 mi SW 13.8 mph 20.7 mph N/A   Clear
1:55 PM 64.2 °F - 41.0 °F 43% 29.95 in 10.0 mi SW 10.4 mph 18.4 mph N/A   Clear
2:15 PM 64.9 °F - 40.6 °F 41% 29.94 in 10.0 mi SW 15.0 mph 20.7 mph N/A   Clear
2:35 PM 64.2 °F - 39.6 °F 40% 29.94 in 10.0 mi West 10.4 mph 20.7 mph N/A   Scattered Clouds
2:55 PM 65.8 °F - 39.2 °F 38% 29.94 in 10.0 mi West 11.5 mph 16.1 mph N/A   Scattered Clouds
3:15 PM 63.1 °F - 38.1 °F 40% 29.94 in 10.0 mi WSW 11.5 mph 18.4 mph N/A   Scattered Clouds
3:35 PM 65.7 °F - 37.6 °F 36% 29.93 in 10.0 mi West 12.7 mph 20.7 mph N/A   Scattered Clouds
3:55 PM 65.8 °F - 37.9 °F 36% 29.93 in 10.0 mi WSW 15.0 mph 20.7 mph N/A   Scattered Clouds
4:15 PM 65.1 °F - 39.4 °F 39% 29.92 in 10.0 mi West 9.2 mph - N/A   Scattered Clouds
4:35 PM 64.6 °F - 38.8 °F 39% 29.93 in 10.0 mi West 12.7 mph 20.7 mph N/A   Scattered Clouds
4:55 PM 63.0 °F - 38.5 °F 40% 29.92 in 10.0 mi West 9.2 mph 17.3 mph N/A   Scattered Clouds
5:15 PM 63.0 °F - 38.7 °F 41% 29.93 in 10.0 mi West 11.5 mph 18.4 mph N/A   Scattered Clouds
5:35 PM 61.9 °F - 39.7 °F 44% 29.93 in 10.0 mi West 12.7 mph 16.1 mph N/A   Scattered Clouds
5:55 PM 60.3 °F - 40.1 °F 47% 29.93 in 10.0 mi West 11.5 mph 16.1 mph N/A   Scattered Clouds
6:15 PM 59.0 °F - 42.3 °F 54% 29.94 in 10.0 mi NW 10.4 mph 16.1 mph N/A   Scattered Clouds
6:35 PM 56.5 °F - 42.6 °F 60% 29.95 in 10.0 mi WNW 5.8 mph - N/A   Clear
6:55 PM 54.7 °F - 42.1 °F 62% 29.96 in 10.0 mi WNW 9.2 mph - N/A   Clear
7:15 PM 52.7 °F - 42.3 °F 68% 29.96 in 10.0 mi NW 6.9 mph - N/A   Clear
7:35 PM 50.9 °F - 42.1 °F 72% 29.97 in 10.0 mi NNW 5.8 mph - N/A   Clear
7:55 PM 50.2 °F - 41.2 °F 71% 29.97 in 10.0 mi NW 8.1 mph - N/A   Clear
8:15 PM 49.5 °F - 40.5 °F 71% 29.98 in 10.0 mi NW 4.6 mph - N/A   Clear
8:35 PM 48.7 °F - 40.1 °F 72% 29.98 in 10.0 mi NW 5.8 mph - N/A   Clear
8:55 PM 47.8 °F - 39.7 °F 74% 29.98 in 10.0 mi NNW 5.8 mph - N/A   Clear
9:15 PM 46.2 °F 43.3 °F 39.4 °F 77% 29.99 in 10.0 mi NNW 5.8 mph - N/A   Clear
9:35 PM 45.5 °F 43.2 °F 39.2 °F 79% 29.99 in 10.0 mi NNW 4.6 mph - N/A   Clear
9:55 PM 45.0 °F 43.5 °F 38.8 °F 79% 29.99 in 10.0 mi NNW 3.5 mph - N/A   Clear
10:15 PM 44.6 °F - 38.8 °F 80% 30.00 in 10.0 mi Calm Calm - N/A   Clear
10:35 PM 43.9 °F - 38.5 °F 81% 30.00 in 10.0 mi Calm Calm - N/A   Clear
10:55 PM 43.7 °F - 38.8 °F 83% 29.99 in 10.0 mi Calm Calm - N/A   Clear
11:15 PM 42.6 °F - 38.5 °F 85% 29.99 in 7.0 mi Calm Calm - N/A   Clear
11:35 PM 41.4 °F - 37.8 °F 87% 29.98 in 7.0 mi Calm Calm - N/A   Clear
11:55 PM 40.6 °F - 37.4 °F 88% 29.97 in 5.0 mi Calm Calm - N/A   Clear